STARLINK-33954, 63863

Orbit data source: Space-Track

STARLINK-33954, 63863 is a payload satellite owned by SpaceX/Seattle (US) in LEO that was launched on Wed, 07 May 2025 UTC via an FALCON 9 launch vehicle from the Air Force Eastern Test Range (AFETR). Payload-class satellites include a variety of spacecraft equipped with specific instruments for various scientific and technological missions. These include communications satellites like Starlink; space stations such as the ISS; scientific satellites like the Hubble; Earth observation satellites from companies like Planet Labs, Umbra, and HawkEye 360; GPS; miniature CubeSats for education and research; and military/defense satellites.

Loading next visibility...
Identifier
63863, 2025-093AD
Orbit
LEO
Country
Flag of USUS
Related business
Manufacturer
SpaceX/Seattle
Mission
Operational Commercial Communications
Bus & Motor
STARLINK V2MO, Unknown motor
Mass
575 kg wet, ~530 kg dry
Launch date (UTC)
2025-05-07 (1 year ago)
Launch vehicle
FALCON 9
Launch site
Air Force Eastern Test Range (AFETR)
Object type
Payload
Rocket body
Debris
Shape & HBR
Box + 2 Pan, 17.7 m
Radar Cross Section
36.964 m², Large (>1 m²)

Expand to show TLE details & history
Last TLE update: 19 hours ago

TLE from 19 hours ago
0 STARLINK-33954
1 63863U 25093AD  26171.17968022  .00009776  00000-0  36421-3 0  9995
2 63863  43.0028 219.3315 0001739 275.9657  84.0997 15.27589266 63423
Epoch: 2026-06-20T04:18Z
TLE epoch observation values (Epoch: 2026-06-20T04:18:44.371Z)
Latitude
-0°
Longitude
-113.75139°
Altitude
482.675 km
Speed
7.626 km/s
True Right ascension
14h 37m 19s
True Declination
0° 00' 00"
Sunlit
Object was in full shadow at epoch
Visualization orbit readout
Latitude
Unknown
Longitude
Unknown
Altitude
Unknown
Speed
Unknown
Apparent Right ascension
Unknown
Apparent Declination
Unknown
Sunlit
N/A
Visualization observer readout
Local Sidereal Time
10:18:48
Azimuth
Unknown
Elevation
Unknown
Doppler factor
Unknown
Orbital elements
Apogee altitude
486.16 km
Perigee altitude
483.773 km
Semi-major axis
6,863.103 km
Eccentricity
0.00017
Inclination
43.0028°
RAAN
219.3315°
Arg. of periapsis
275.9657°
True anomaly
84.11952°
Mean anomaly
84.0997°
Eccentric anomaly
84.10961°
Mean motion
3.81735 °/min
Orbital period
94.31 mins
BSTAR
0.00036421
Loading maneuver chart data...
Computing Atmospheric mass density...
Loading historical data...
Loading historical data...
Loading historical data...
Loading historical data...
Loading historical data...
Loading historical data...
Loading historical data...

Documentation

Showing up to 5 results
|